Marrakech, Morocco

12:40 AM WEST on July 24, 2017 (GMT +0100)
Marrakech

Weather History for GMMX - September, 2013

Change the Weather History Date:

Tuesday, September 17, 2013

  Actual Average Record
Temperature  
Mean Temperature 70 °F -  
Max Temperature 77 °F 84 °F 104 °F (2012)
Min Temperature 62 °F 61 °F 60 °F (1996)
Cooling Degree Days 4    
Growing Degree Days 20 (Base 50)    
Moisture  
Dew Point 64 °F    
Average Humidity 87    
Maximum Humidity 100    
Minimum Humidity 57    
Precipitation  
Precipitation 2.28 in 0.02 in - ()
Sea Level Pressure  
Sea Level Pressure 30.06 in    
Wind  
Wind Speed 5 mph ()    
Max Wind Speed 13 mph    
Max Gust Speed 15 mph    
Visibility 4.3 miles    
Events Rain , Thunderstorm    
Averages and records for this station are not official NWS values.
T = Trace of Precipitation, MM = Missing Value Source: Averaged Metar Reports

Daily Weather History Graph

Daily Weather History Graph

Search for Another Location

Airport or City:

Trip Planner

Search our weather history database for the weather conditions in past years. The results will help you decide how hot, cold, wet, or windy it might be!

Date:

Astronomy

Sep. 17, 2013 Rise Set
Actual Time 7:17 AM WEST 7:35 PM WEST
Civil Twilight 6:53 AM WEST 7:59 PM WEST
Nautical Twilight 6:24 AM WEST 8:28 PM WEST
Astronomical Twilight 5:55 AM WEST 8:56 PM WEST
Moon 6:10 PM WEST (9/17) 5:02 AM WEST (9/17)
Length of Visible Light 13h 06m
Length of Day
12h 17m
Waxing Gibbous, 95% of the Moon is Illuminated
Sep 17
Waxing Gibbous
Sep 19
Full
Sep 27
Last Quarter
Oct 5
New
Oct 12
First Quarter

Hourly Weather History & Observations

Time (WEST) Temp. Dew Point Humidity Pressure Visibility Wind Dir Wind Speed Gust Speed Precip Events Conditions
12:00 AM 69.8 °F 64.4 °F 83% 30.09 in 6.2 mi NNE 6.9 mph - N/A   Scattered Clouds
12:30 AM 69.8 °F 64.4 °F 83% 30.09 in 6.2 mi NNE 10.4 mph - N/A   Scattered Clouds
1:00 AM 69 °F 60 °F 67% 30.05 in 6 mi NE 10.4 mph - - Rain Heavy Rain
1:00 AM 69.8 °F 60.8 °F 73% 30.09 in 6.2 mi NE 12.7 mph - N/A Rain Rain
1:30 AM 68.0 °F 60.8 °F 78% 30.09 in 6.2 mi ENE 10.4 mph - N/A   Scattered Clouds
2:00 AM 66.2 °F 60.8 °F 83% 30.09 in 6.2 mi ENE 8.1 mph - N/A   Scattered Clouds
2:30 AM 66.2 °F 62.6 °F 88% 30.09 in 3.1 mi East 8.1 mph - N/A   Scattered Clouds
3:00 AM 64.4 °F 62.6 °F 94% 30.06 in 5.0 mi NE 5.8 mph - N/A   Scattered Clouds
3:30 AM 64.4 °F 64.4 °F 100% 30.06 in 6.2 mi ENE 3.5 mph - N/A   Scattered Clouds
4:00 AM 64 °F 64 °F 99% 30.03 in 3 mi ESE 3.5 mph - -   Light Haze
4:00 AM 64.4 °F 64.4 °F 100% 30.06 in 4.3 mi East 3.5 mph - N/A   Haze
4:30 AM 64.4 °F 64.4 °F 100% 30.04 in 5.0 mi NE 3.5 mph - N/A   Scattered Clouds
5:00 AM 64.4 °F 64.4 °F 100% 30.04 in 5.6 mi Calm Calm - N/A   Scattered Clouds
5:30 AM 64.4 °F 64.4 °F 100% 30.04 in 5.0 mi Calm Calm - N/A   Scattered Clouds
6:00 AM 64.4 °F 64.4 °F 100% 30.04 in 3.1 mi WNW 3.5 mph - N/A   Scattered Clouds
6:30 AM 64.4 °F 64.4 °F 100% 30.04 in 3.1 mi West 2.3 mph - N/A   Scattered Clouds
7:00 AM 63 °F 63 °F 98% 30.01 in 3 mi West 2.3 mph - -   Clear
7:00 AM 62.6 °F 62.6 °F 100% 30.04 in 3.1 mi West 2.3 mph - N/A   Partly Cloudy
7:19 AM 62.6 °F 62.6 °F 100% 30.04 in 1.9 mi West 3.5 mph - N/A   Scattered Clouds
7:30 AM 62.6 °F 62.6 °F 100% 30.04 in 1.9 mi West 3.5 mph - N/A   Scattered Clouds
8:00 AM 62.6 °F 62.6 °F 100% 30.04 in 1.9 mi West 5.8 mph - N/A   Scattered Clouds
8:01 AM 62.6 °F 62.6 °F 100% 30.04 in 0.7 mi West 5.8 mph - N/A   Scattered Clouds
8:12 AM 62.6 °F 62.6 °F 100% 30.06 in 1.6 mi West 3.5 mph - N/A   Haze
8:30 AM 62.6 °F 62.6 °F 100% 30.06 in 1.6 mi West 3.5 mph - N/A   Scattered Clouds
8:40 AM 64.4 °F 64.4 °F 100% 30.06 in 3.1 mi NNW 3.5 mph - N/A   Mostly Cloudy
9:00 AM 64.4 °F 64.4 °F 100% 30.06 in 3.1 mi Variable 2.3 mph - N/A   Overcast
9:30 AM 64.4 °F 64.4 °F 100% 30.06 in 3.1 mi NNW 3.5 mph - N/A   Overcast
9:45 AM 66 °F 66 °F 99% 30.04 in 3 mi NNE 3.5 mph - -   Overcast
10:00 AM 66.2 °F 66.2 °F 100% 30.06 in 3.1 mi NNE 3.5 mph - N/A   Overcast
10:30 AM 66.2 °F 66.2 °F 100% 30.09 in 3.7 mi North 3.5 mph - N/A   Overcast
10:46 AM 66.2 °F 66.2 °F 100% 30.09 in 3.7 mi North 3.5 mph - N/A   Mostly Cloudy
11:30 AM 68.0 °F 66.2 °F 94% 30.09 in 4.3 mi WNW 3.5 mph - N/A   Mostly Cloudy
12:00 PM 68.0 °F 64.4 °F 88% 30.12 in 4.3 mi Variable 1.2 mph - N/A   Overcast
12:30 PM 69.8 °F 64.4 °F 83% 30.09 in 4.3 mi Variable 2.3 mph - N/A   Mostly Cloudy
1:00 PM 70 °F 65 °F 78% 30.05 in 4 mi East 3.5 mph - -   Overcast
1:00 PM 69.8 °F 64.4 °F 83% 30.09 in 4.3 mi East 3.5 mph - N/A   Mostly Cloudy
1:30 PM 71.6 °F 64.4 °F 78% 30.09 in 6.2 mi Variable 2.3 mph 15.0 mph N/A   Mostly Cloudy
2:00 PM 71.6 °F 64.4 °F 78% 30.09 in 6.2 mi WNW 1.2 mph - N/A   Mostly Cloudy
2:30 PM 71.6 °F 64.4 °F 78% 30.09 in 6.2 mi West 5.8 mph - N/A   Mostly Cloudy
3:00 PM 71.6 °F 66.2 °F 83% 30.06 in 6.2 mi WSW 6.9 mph - N/A   Mostly Cloudy
3:30 PM 73.4 °F 66.2 °F 78% 30.06 in 6.2 mi WSW 8.1 mph - N/A   Mostly Cloudy
4:00 PM 76 °F 64 °F 59% 29.99 in 6 mi WNW 6.9 mph - -   Mostly Cloudy
4:00 PM 77.0 °F 64.4 °F 65% 30.06 in 6.2 mi WNW 5.8 mph - N/A   Mostly Cloudy
4:30 PM 77.0 °F 64.4 °F 65% 30.06 in 6.2 mi Variable 4.6 mph - N/A   Mostly Cloudy
5:00 PM 77.0 °F 64.4 °F 65% 30.04 in 6.2 mi NNW 4.6 mph - N/A   Mostly Cloudy
5:30 PM 77.0 °F 62.6 °F 61% 30.04 in 6.2 mi North 5.8 mph - N/A   Mostly Cloudy
6:00 PM 77.0 °F 62.6 °F 61% 30.04 in 6.2 mi NW 5.8 mph - N/A   Mostly Cloudy
6:30 PM 77.0 °F 62.6 °F 61% 30.04 in 6.2 mi NNW 4.6 mph - N/A   Mostly Cloudy
7:00 PM 76 °F 64 °F 57% 29.97 in 6 mi WNW 4.6 mph - -   Mostly Cloudy
7:00 PM 75.2 °F 62.6 °F 65% 30.04 in 6.2 mi NW 4.6 mph - N/A   Mostly Cloudy
7:30 PM 75.2 °F 64.4 °F 69% 30.04 in 6.2 mi West 5.8 mph - N/A   Mostly Cloudy
8:00 PM 73.4 °F 64.4 °F 73% 30.04 in 6.2 mi West 5.8 mph - N/A   Mostly Cloudy
8:29 PM 73.4 °F 64.4 °F 73% 30.04 in 3.7 mi SSW 3.5 mph - N/A Rain , Thunderstorm Thunderstorms and Rain
8:30 PM 73.4 °F 64.4 °F 73% 30.04 in 3.7 mi SSW 3.5 mph - N/A Rain , Thunderstorm Thunderstorms and Rain
9:00 PM 69.8 °F 66.2 °F 88% 30.04 in 3.1 mi West 12.7 mph - N/A Rain , Thunderstorm Thunderstorms and Rain
9:21 PM 66.2 °F 66.2 °F 100% 30.09 in 1.2 mi North 9.2 mph - N/A Rain , Thunderstorm Heavy Thunderstorms and Rain
9:30 PM 68.0 °F 66.2 °F 94% 30.06 in 3.1 mi North 9.2 mph - N/A Rain , Thunderstorm Thunderstorms and Rain
9:50 PM 64.4 °F 64.4 °F 100% 30.12 in 3.1 mi North 6.9 mph - N/A Rain , Thunderstorm Thunderstorms and Rain
10:00 PM 64 °F 64 °F 99% 30.09 in 3 mi NW 5.8 mph - - Rain , Thunderstorm Thunderstorms and Rain
10:00 PM 64.4 °F 64.4 °F 100% 30.12 in 3.1 mi NNW 5.8 mph - N/A Rain , Thunderstorm Thunderstorms and Rain
10:30 PM 64.4 °F 64.4 °F 100% 30.12 in 3.1 mi North 8.1 mph - N/A Rain , Thunderstorm Thunderstorms and Rain
11:00 PM 64.4 °F 64.4 °F 100% 30.12 in 3.7 mi West 10.4 mph - N/A Thunderstorm Thunderstorm
11:30 PM 64.4 °F 64.4 °F 100% 30.12 in 3.7 mi WNW 9.2 mph - N/A Rain , Thunderstorm Thunderstorms and Rain